SR1WXZ Szczecin PL current weather conditions

sailwx.info

Wind from 100 at 5 knots

Air temperature 18.9° C
Dewpoint 10.7° C

Last reported at 2019-Aug-25 21:56 UTC.
Time now 2019-Aug-25 22:55 UTC

Location: N 53°27' E 014°32'.
View on Google Maps.

See reports from other nearby stations

  
Tides and Currents Weather Stations Pressure Air Temp Water Temp Dewpoint Dewpoint Depression Visibility Wind Speed Wind Dir Waves Ship Positions
date/time (UTC)wind fromknots sea level pressurealtimeterstation pressurevisibilityair tempwater tempwave heightnotes
2019-Aug-25 21:56 100 5 18.9
2019-Aug-25 21:41 100 6 20.0
2019-Aug-25 21:26 100 6 20.0
2019-Aug-25 21:11 100 6 20.0
2019-Aug-25 20:56 100 6 20.0
2019-Aug-25 20:41 100 6 22.2
2019-Aug-25 20:26 100 6 22.2
2019-Aug-25 20:11 090 6 22.2
2019-Aug-25 19:56 090 6 22.2
2019-Aug-25 19:41 080 6 22.8
2019-Aug-25 19:26 080 6 22.8
2019-Aug-25 19:11 080 6 22.2
2019-Aug-25 18:56 080 6 22.2
2019-Aug-25 18:41 080 5 23.9
2019-Aug-25 18:26 080 5 23.9
2019-Aug-25 18:11 080 4 27.2
2019-Aug-25 17:56 080 4 27.2
2019-Aug-25 17:41 100 6 27.8
2019-Aug-25 17:26 100 6 27.8
2019-Aug-25 17:11 090 6 27.8
2019-Aug-25 16:56 090 6 27.8
2019-Aug-25 16:41 110 6 28.9
2019-Aug-25 16:26 110 6 28.9
2019-Aug-25 16:11 100 7 28.9
2019-Aug-25 15:56 100 7 28.9
2019-Aug-25 15:41 120 8 28.9
2019-Aug-25 15:26 120 8 28.9
2019-Aug-25 15:11 140 6 28.9
2019-Aug-25 14:56 140 6 28.9
2019-Aug-25 14:41 130 10 28.9
2019-Aug-25 14:26 130 10 28.9
2019-Aug-25 14:11 120 7 28.9
2019-Aug-25 13:56 120 7 28.9
2019-Aug-25 13:41 140 12 28.9
2019-Aug-25 13:26 140 12 28.9
2019-Aug-25 13:11 140 8 28.9
2019-Aug-25 12:56 140 8 28.9
2019-Aug-25 12:41 130 12 27.8
2019-Aug-25 12:26 130 12 27.8
2019-Aug-25 12:11 120 6 27.8
2019-Aug-25 11:56 120 6 27.8
2019-Aug-25 11:41 100 10 27.2
2019-Aug-25 11:26 100 10 27.2
2019-Aug-25 11:11 140 11 27.2
2019-Aug-25 10:56 140 11 27.2
2019-Aug-25 10:41 150 12 27.2
2019-Aug-25 10:26 150 12 27.2
2019-Aug-25 10:11 120 13 26.1
2019-Aug-25 09:56 120 13 26.1
2019-Aug-25 09:41 130 13 26.1
2019-Aug-25 09:26 130 13 26.1
2019-Aug-25 09:11 130 15 25.0
2019-Aug-25 08:56 130 15 25.0
2019-Aug-25 08:41 120 11 25.0
2019-Aug-25 08:26 120 11 25.0
2019-Aug-25 08:11 110 11 22.8
2019-Aug-25 07:56 110 11 22.8
2019-Aug-25 07:41 110 11 22.2
2019-Aug-25 07:26 110 11 22.2
2019-Aug-25 07:11 110 11 20.0
2019-Aug-25 06:56 110 11 20.0
2019-Aug-25 06:41 100 10 18.9
2019-Aug-25 06:26 100 10 18.9
2019-Aug-25 06:11 100 8 17.8
2019-Aug-25 05:56 100 8 17.8
2019-Aug-25 05:41 100 6 17.2
2019-Aug-25 05:26 100 6 17.2
2019-Aug-25 05:11 100 6 17.2
2019-Aug-25 04:56 100 6 17.2
2019-Aug-25 04:41 090 5 16.1
2019-Aug-25 04:26 090 5 16.1
2019-Aug-25 04:11 090 5 16.1
2019-Aug-25 03:56 090 5 16.1
2019-Aug-25 03:41 090 5 17.2
2019-Aug-25 03:26 090 5 17.2
2019-Aug-25 03:11 090 4 15.0
2019-Aug-25 02:56 090 4 15.0
2019-Aug-25 02:41 090 5 15.0
2019-Aug-25 02:26 090 5 15.0
2019-Aug-25 02:11 090 4 15.0
2019-Aug-25 01:56 090 4 15.0
2019-Aug-25 01:41 090 5 16.1
2019-Aug-25 01:26 090 5 16.1
2019-Aug-25 01:11 100 5 16.1
2019-Aug-25 00:56 100 5 16.1
2019-Aug-25 00:41 100 5 16.1
2019-Aug-25 00:26 100 5 16.1
2019-Aug-25 00:11 090 4 16.1
2019-Aug-24 23:56 090 4 16.1
2019-Aug-24 23:41 090 2 17.8
2019-Aug-24 23:26 090 2 17.8
2019-Aug-24 23:11 060 6 17.8
2019-Aug-24 22:56 060 6 17.8
2019-Aug-24 22:41 060 6 18.9
2019-Aug-24 22:26 060 6 18.9
2019-Aug-24 22:11 050 8 18.9
2019-Aug-24 21:56 050 8 18.9
2019-Aug-24 21:41 050 7 20.0
2019-Aug-24 21:26 050 7 20.0
2019-Aug-24 21:11 050 6 20.0
2019-Aug-24 20:56 050 6 20.0
2019-Aug-24 20:41 050 8 21.1
2019-Aug-24 20:26 050 8 21.1
2019-Aug-24 20:11 050 7 22.2
2019-Aug-24 19:56 050 7 22.2
2019-Aug-24 19:41 030 6 21.1
2019-Aug-24 19:26 030 6 21.1
2019-Aug-24 19:11 070 5 21.1
2019-Aug-24 18:56 070 5 21.1
2019-Aug-24 18:41 090 5 25.0
2019-Aug-24 18:26 090 5 25.0
2019-Aug-24 18:11 100 5 26.1
2019-Aug-24 17:56 100 5 26.1
2019-Aug-24 17:41 090 6 27.2
2019-Aug-24 17:26 090 6 27.2
2019-Aug-24 17:11 100 7 27.8
2019-Aug-24 16:56 100 7 27.8
2019-Aug-24 16:41 080 6 27.8
2019-Aug-24 16:26 080 6 27.8
2019-Aug-24 16:11 070 7 27.8
2019-Aug-24 15:56 070 7 27.8
2019-Aug-24 15:41 070 6 27.8
2019-Aug-24 15:26 070 6 27.8
2019-Aug-24 15:11 100 6 27.8
2019-Aug-24 14:56 100 6 27.8
2019-Aug-24 14:41 060 6 27.8
2019-Aug-24 14:26 060 6 27.8
2019-Aug-24 14:11 110 7 27.8
2019-Aug-24 13:56 110 7 27.8
2019-Aug-24 13:41 100 7 27.8
2019-Aug-24 13:26 100 7 27.8
2019-Aug-24 13:11 100 8 27.8
2019-Aug-24 12:56 100 8 27.8
2019-Aug-24 12:41 090 6 27.8
2019-Aug-24 12:26 090 6 27.8
2019-Aug-24 12:11 140 7 27.8
2019-Aug-24 11:56 140 7 27.8
2019-Aug-24 11:41 27.8
2019-Aug-24 11:26 27.8
2019-Aug-24 11:11 090 6 27.2
2019-Aug-24 10:56 090 6 27.2
2019-Aug-24 10:41 100 7 26.1
2019-Aug-24 10:26 100 7 26.1
2019-Aug-24 10:11 26.1
2019-Aug-24 09:56 26.1
2019-Aug-24 09:41 130 7 26.1
2019-Aug-24 09:26 130 7 26.1
2019-Aug-24 09:11 25.0
2019-Aug-24 08:56 25.0
2019-Aug-24 08:41 060 4 23.9
2019-Aug-24 08:26 060 4 23.9
2019-Aug-24 08:11 070 4 22.8
2019-Aug-24 07:56 070 4 22.8
2019-Aug-24 07:41 22.2
2019-Aug-24 07:26 22.2
2019-Aug-24 07:11 20.0
2019-Aug-24 06:56 20.0
2019-Aug-24 06:41 17.2
2019-Aug-24 06:26 17.2
2019-Aug-24 06:11 100 0 13.9
2019-Aug-24 05:56 100 0 13.9
2019-Aug-24 05:41 12.2
2019-Aug-24 05:26 12.2
2019-Aug-24 05:11 110 2 10.0
2019-Aug-24 04:56 110 2 10.0
2019-Aug-24 04:41 11.1
2019-Aug-24 04:26 11.1
2019-Aug-24 04:11 11.1
2019-Aug-24 03:56 11.1
2019-Aug-24 03:41 100 0 11.1
2019-Aug-24 03:26 100 0 11.1
2019-Aug-24 03:11 340 0 12.2
2019-Aug-24 02:56 340 0 12.2
2019-Aug-24 02:41 12.2
2019-Aug-24 02:26 12.2
2019-Aug-24 02:11 090 1 12.2
2019-Aug-24 01:56 090 1 12.2
2019-Aug-24 01:41 060 0 12.8
2019-Aug-24 01:26 060 0 12.8
2019-Aug-24 01:11 12.8
2019-Aug-24 00:56 12.8
2019-Aug-24 00:41 100 4 13.9
2019-Aug-24 00:26 100 4 13.9
2019-Aug-24 00:11 110 4 13.9
2019-Aug-23 23:56 110 4 13.9
2019-Aug-23 23:41 110 2 13.9
2019-Aug-23 23:26 110 2 13.9
2019-Aug-23 23:11 090 1 15.0
2019-Aug-23 22:56 090 1 15.0
2019-Aug-23 22:41 090 1 13.9
2019-Aug-23 22:26 090 1 13.9
2019-Aug-23 22:11 12.8